Flag for U.S.A. Weather past 2 weeks in Grand Rapids, Michigan, U.S.A.

Now
37 °F

Light rain. Overcast.


Feels Like: 26 °F
Forecast: 34 / 49 °F
Wind: 22 mph from Southwest

Location: Kent County International Airport

Current Time: Mar 29, 2015 at 8:50:05 PM

Latest Report: Mar 29, 2015 at 7:53 PM


Visibility: 5 mi

Pressure: 29.73 "Hg

Humidity: 70%

Dew point: 28 °F

Location of Grand RapidsLocation

Historic Weather in Grand Rapids — Graph

°F

Grand Rapids temperature yesterday

Maximum temperature yesterday: 36 °F (at 3:53 PM)
Minimum temperature yesterday: 13 °F (at 4:53 AM)
Average temperature yesterday: 23 °F

Past Weeks' High & Low Weather Summary

 TemperatureHumidityPressure
High65 °F (Mar 16, 3:53 PM)96% (Mar 25, 9:53 AM)30.39 "Hg (Mar 25, 9:53 AM)
Low13 °F (Mar 28, 4:53 AM)25% (Mar 24, 4:53 PM)29.70 "Hg (Mar 16, 6:53 PM)
Average35 °F57%30.15 "Hg
* Reported Mar 14 6:53 PM — Mar 29 6:53 PM, Grand Rapids, Weather by CustomWeather, © 2015

Note: Actual official high and low records may vary slightly from our data, if they occured in-between our weather recording intervals... More about our weather records

Advertising

Grand Rapids weather history for previous 24 hours

 ConditionsComfort  
Time TempWeatherWind HumidityBarometerVisibility
6:53 PM
Sun, Mar 29
37 °FOvercast.22 mph67%29.77 "Hg10 mi
5:53 PM35 °FMostly cloudy.20 mph75%29.81 "Hg10 mi
4:53 PM34 °FLight rain. More clouds than sun.21 mph82%29.86 "Hg3 mi
3:53 PM36 °FLight snow. Overcast.20 mph64%29.88 "Hg3 mi
2:53 PM42 °FMostly cloudy.22 mph30%29.88 "Hg10 mi
1:53 PM43 °FMore clouds than sun.24 mph29%29.95 "Hg10 mi
12:53 PM42 °FMore clouds than sun.17 mph33%30.02 "Hg10 mi
11:53 AM39 °FBroken clouds.21 mph38%30.07 "Hg10 mi
10:53 AM36 °FBroken clouds.18 mph44%30.13 "Hg10 mi
9:53 AM33 °FBroken clouds.13 mph52%30.18 "Hg10 mi
8:53 AM29 °FPartly sunny.14 mph56%30.21 "Hg10 mi
7:53 AM25 °FPassing clouds.14 mph63%30.19 "Hg10 mi
6:53 AM23 °FPassing clouds.8 mph65%30.21 "Hg10 mi
5:53 AM22 °FClear.9 mph66%30.22 "Hg10 mi
4:53 AM21 °FClear.9 mph60%30.24 "Hg10 mi
3:53 AM21 °FClear.9 mph60%30.26 "Hg10 mi
2:53 AM18 °FClear.8 mph68%30.27 "Hg10 mi
1:53 AM20 °FClear.10 mph65%30.29 "Hg10 mi
12:53 AM17 °FClear.3 mph70%30.31 "Hg10 mi
11:53 PM
Sat, Mar 28
21 °FClear.3 mph62%30.32 "Hg10 mi
10:53 PM23 °FClear.6 mph57%30.33 "Hg10 mi
9:53 PM24 °FClear.6 mph55%30.33 "Hg10 mi
8:53 PM27 °FSunny.8 mph49%30.32 "Hg10 mi
Weather by CustomWeather, © 2015

See weather overviewHow to use our weather pages